Temp
79 78 79 78 77 75 73 73 73 73 73 74 75 75 75 76 77 78 79 79 80 80 77 76 76 76 77 78 78 77 75 75 73 73 73 73 73 71 70 71 70 70 70
73 74 75 75 75 75 74 72 73 73 73 75 76 76 76 77 77 78 80 80 80 80 79 77 76 78 77 77 77 77 74 73 74 72 68 69 71 69 69 71 70 69 69
73 71 73 73 75 74 73 73 72 73 73 74 76 76 76 76 76 78 78 80 81 80 79 78 76 77 77 77 77 76 75 72 74 72 72 68 68 67 68 68 68 69 69
76 75 74 72 74 76 76 74 73 73 74 74 74 75 75 74 75 76 77 78 80 79 80 79 78 77 76 76 76 76 75 74 73 72 72 70 71 66 65 65 65 69 68
77 76 76 76 77 79 76 75 72 73 74 73 74 74 74 74 75 75 76 76 77 80 81 80 79 77 76 76 76 75 73 74 72 70 69 69 68 67 64 61 63 67 66
78 79 79 78 77 78 77 75 72 72 73 73 74 73 73 73 73 74 74 75 77 77 78 80 78 77 78 76 75 76 74 73 71 70 69 66 65 65 65 62 63 63 67
79 79 76 76 76 76 76 75 72 72 73 73 73 73 73 73 73 74 74 75 76 76 77 77 78 78 77 78 76 75 74 73 72 70 69 67 66 67 66 64 63 61 65
79 79 79 78 78 78 77 77 73 73 72 73 73 73 73 73 73 74 74 74 75 76 77 77 77 78 77 77 76 75 75 74 74 70 68 67 67 68 67 66 63 61 62
78 79 80 80 79 77 77 78 75 74 72 74 74 72 72 72 72 73 73 74 74 76 76 76 77 78 78 77 76 76 75 75 75 70 70 68 68 68 68 68 65 64 61
78 79 78 79 80 78 76 77 78 76 75 74 73 75 73 73 73 73 73 73 74 74 76 76 77 77 77 77 76 75 75 74 74 71 72 70 69 69 69 68 68 65 63
76 78 79 80 81 79 75 77 76 77 75 75 75 75 75 74 74 74 74 74 74 74 74 75 75 75 75 76 75 74 74 74 73 72 72 72 71 69 69 69 68 64 65
76 74 76 79 80 78 77 78 79 77 77 75 73 74 75 75 75 74 75 75 75 75 74 75 74 74 75 76 76 75 76 73 73 74 72 72 71 70 70 69 66 64 65
74 73 73 73 76 76 77 75 77 77 77 74 75 74 73 74 75 75 75 76 76 75 76 76 76 76 76 76 75 75 76 75 75 74 73 71 71 70 69 68 65 63 64
72 70 70 70 70 71 74 74 76 78 75 75 75 74 74 74 75 75 75 76 76 76 75 76 76 75 75 75 75 75 75 75 75 75 74 74 72 70 69 67 65 62 63
69 68 68 67 68 69 70 71 72 73 73 74 74 74 74 75 74 74 75 74 74 74 74 74 74 75 75 77 75 73 74 73 73 74 74 74 73 70 69 68 65 61 61
70 69 68 68 69 70 71 71 72 72 73 73 73 73 73 73 73 72 72 72 73 73 74 74 74 73 76 67 65 67 70 71 72 71 72 71 71 69 67 67 66 64 62
71 69 69 70 69 70 70 70 70 70 71 70 70 70 71 70 71 72 71 71 72 73 72 71 72 72 64 60 61 64 69 71 72 71 69 69 69 68 69 66 65 65 65
70 69 70 70 70 70 69 68 69 69 69 68 69 70 71 70 71 71 71 71 71 70 70 70 68 64 61 59 59 62 72 71 70 69 68 68 67 66 67 66 64 66 64
71 70 72 72 69 69 69 69 69 69 70 69 70 71 71 70 70 70 69 70 69 68 69 67 65 64 60 56 57 64 69 70 70 68 68 66 64 60 61 66 62 62 60
71 70 70 71 70 69 70 69 68 69 69 70 70 70 70 69 69 68 68 68 68 68 68 65 64 61 61 55 55 61 65 64 66 69 66 63 63 58 60 64 64 60 60
70 71 70 70 70 69 69 68 67 68 69 70 69 69 68 68 67 66 66 66 65 66 67 66 65 63 60 59 54 54 62 62 64 66 65 64 57 55 56 59 64 60 60
69 71 69 68 68 69 69 67 66 67 68 68 68 67 66 68 66 64 63 64 63 63 64 65 64 64 63 56 55 54 54 58 62 63 65 62 55 53 54 58 53 54 59
69 70 69 67 67 68 68 66 65 67 67 67 66 65 65 65 64 63 62 61 62 62 63 62 60 60 60 59 54 53 54 57 60 60 58 56 52 52 55 55 53 56 61
68 68 66 65 65 66 67 68 65 67 67 65 65 64 63 62 62 62 62 61 60 60 60 60 58 57 56 56 55 56 56 57 59 57 60 59 57 58 60 60 58 60 62
64 65 65 65 64 64 63 64 64 65 64 64 64 63 63 61 58 56 57 58 57 59 60 59 57 55 55 53 47 47 52 53 52 51 61 60 60 59 60 62 61 59 58
62 61 61 61 62 63 62 62 64 65 63 62 62 62 62 59 58 57 54 50 49 46 44 44 50 54 47 44 45 44 44 46 46 57 62 61 60 60 60 60 60 60 60
MSLP
1010.64 1011.20 1011.56 1012.03 1012.66 1013.14 1013.54 1013.82 1014.12 1014.29 1014.66 1014.86 1014.92 1014.95 1014.75 1014.52 1014.25 1014.06 1014.11 1014.07 1014.14 1014.42 1014.78 1014.90 1015.00 1015.08 1014.91 1014.87 1014.70 1014.76 1014.92 1014.91 1014.88 1014.73 1014.63 1014.76 1014.81 1014.87 1014.92 1014.97 1015.17 1015.39 1015.30
1010.82 1011.04 1011.47 1011.93 1012.28 1012.66 1013.01 1013.59 1013.82 1014.11 1014.32 1014.43 1014.53 1014.64 1014.64 1014.55 1014.43 1014.02 1013.86 1013.99 1014.12 1014.32 1014.56 1014.80 1014.85 1014.84 1014.91 1014.69 1014.65 1014.85 1015.15 1015.10 1015.00 1015.22 1015.39 1015.21 1015.09 1014.89 1015.19 1015.08 1015.52 1015.58 1015.69
1010.42 1010.82 1011.24 1011.50 1011.99 1012.47 1012.78 1013.15 1013.44 1013.62 1013.90 1014.21 1014.45 1014.62 1014.66 1014.54 1014.41 1014.20 1014.09 1014.10 1014.17 1014.26 1014.41 1014.52 1014.78 1014.69 1014.78 1014.73 1014.80 1014.97 1015.18 1015.18 1015.10 1015.30 1015.44 1015.55 1015.42 1015.49 1015.51 1015.66 1015.61 1015.77 1015.99
1009.59 1010.12 1010.56 1011.13 1011.51 1011.77 1012.37 1012.79 1013.04 1013.25 1013.48 1013.87 1014.27 1014.51 1014.58 1014.77 1014.64 1014.49 1014.29 1014.07 1014.06 1014.14 1014.25 1014.38 1014.46 1014.64 1014.69 1014.73 1014.62 1014.74 1014.96 1015.27 1015.25 1015.36 1015.18 1014.96 1015.03 1015.48 1016.00 1016.13 1016.00 1016.10 1015.75
1008.76 1009.25 1009.77 1010.06 1010.57 1011.32 1011.81 1012.27 1012.84 1013.19 1013.29 1013.65 1013.95 1014.34 1014.49 1014.53 1014.54 1014.61 1014.48 1014.36 1014.11 1014.00 1014.04 1014.08 1014.17 1014.45 1014.54 1014.46 1014.49 1014.59 1014.86 1014.95 1015.15 1014.98 1014.91 1015.01 1015.33 1015.68 1015.96 1016.30 1016.37 1016.18 1016.12
1007.91 1008.40 1008.72 1009.65 1010.32 1010.99 1011.53 1011.95 1012.54 1012.81 1013.08 1013.41 1013.68 1014.01 1014.26 1014.45 1014.65 1014.58 1014.59 1014.47 1014.25 1014.09 1013.99 1013.92 1013.97 1013.91 1014.10 1014.19 1014.29 1014.36 1014.50 1014.61 1014.64 1014.50 1014.64 1015.20 1016.09 1016.26 1016.18 1016.07 1015.85 1015.79 1015.46
1007.08 1007.79 1008.56 1009.16 1009.70 1010.32 1010.90 1011.51 1012.09 1012.52 1012.76 1013.08 1013.31 1013.56 1013.86 1014.14 1014.32 1014.42 1014.38 1014.34 1014.34 1014.21 1014.00 1014.08 1013.85 1013.76 1013.76 1013.97 1014.10 1014.00 1014.06 1013.96 1014.09 1014.22 1014.77 1015.24 1015.28 1015.69 1015.56 1015.53 1015.52 1015.26 1015.40
1006.21 1006.82 1007.39 1008.11 1008.81 1009.52 1010.22 1010.81 1011.39 1011.92 1012.33 1012.69 1012.87 1013.08 1013.37 1013.78 1013.97 1014.08 1014.17 1014.13 1014.18 1014.17 1014.11 1014.06 1013.89 1013.71 1013.60 1013.61 1013.54 1013.59 1013.55 1013.48 1013.41 1013.71 1013.97 1014.22 1014.60 1014.81 1014.68 1014.58 1014.69 1014.91 1015.24
1005.57 1006.00 1006.61 1007.36 1008.11 1008.97 1009.50 1010.00 1010.62 1011.15 1011.72 1012.07 1012.36 1012.69 1012.98 1013.31 1013.47 1013.62 1013.88 1014.01 1014.03 1014.08 1013.99 1013.87 1013.84 1013.60 1013.40 1013.28 1013.25 1013.14 1012.96 1012.91 1012.93 1013.30 1013.44 1013.23 1012.04 1013.29 1013.77 1013.78 1013.85 1014.03 1014.68
1005.20 1005.73 1006.24 1006.74 1007.37 1007.96 1008.71 1009.43 1009.89 1010.36 1010.76 1011.29 1011.77 1012.11 1012.44 1012.74 1012.99 1013.27 1013.48 1013.63 1013.75 1013.83 1013.85 1013.72 1013.51 1013.34 1013.22 1013.01 1012.94 1012.77 1012.47 1012.61 1012.38 1012.16 1012.36 1012.34 1012.63 1012.74 1012.97 1013.07 1013.13 1013.40 1014.15
1004.73 1005.07 1005.46 1005.95 1006.61 1007.45 1008.30 1008.74 1009.35 1009.83 1010.18 1010.51 1011.00 1011.48 1011.78 1012.11 1012.53 1012.94 1013.13 1013.40 1013.48 1013.41 1013.54 1013.46 1013.33 1013.06 1012.82 1012.63 1012.54 1012.50 1012.48 1011.97 1011.76 1011.68 1011.54 1011.63 1011.97 1011.86 1012.40 1012.50 1012.58 1013.11 1013.87
1004.26 1004.68 1005.13 1005.69 1006.38 1006.95 1007.67 1008.13 1008.58 1009.18 1009.42 1009.86 1010.41 1010.87 1011.23 1011.61 1012.02 1012.34 1012.58 1012.83 1013.02 1013.09 1013.05 1013.03 1012.98 1012.83 1012.63 1012.33 1012.08 1011.93 1011.81 1011.61 1011.20 1011.02 1010.99 1011.09 1011.29 1011.62 1011.94 1011.89 1012.25 1013.00 1013.74
1004.20 1004.74 1005.21 1005.68 1006.06 1006.58 1007.14 1007.54 1008.02 1008.25 1008.73 1009.35 1009.98 1010.30 1010.61 1011.05 1011.36 1011.59 1011.97 1012.38 1012.55 1012.77 1012.79 1012.63 1012.50 1012.48 1012.36 1012.18 1011.91 1011.70 1011.36 1011.14 1010.95 1010.65 1010.40 1010.32 1010.61 1011.01 1011.29 1011.34 1012.13 1012.93 1013.80
1004.08 1004.66 1005.07 1005.43 1005.75 1006.13 1006.60 1007.04 1007.37 1007.81 1008.23 1008.86 1009.41 1009.80 1010.07 1010.33 1010.75 1011.17 1011.62 1011.95 1012.15 1012.31 1012.35 1012.46 1012.48 1012.34 1012.21 1011.92 1011.56 1011.37 1011.19 1010.95 1010.63 1010.25 1009.99 1009.79 1010.06 1010.52 1010.84 1010.92 1011.80 1012.84 1013.80
1004.01 1004.51 1004.86 1005.25 1005.66 1006.07 1006.40 1006.73 1006.96 1007.38 1007.89 1008.57 1009.04 1009.22 1009.60 1010.06 1010.53 1011.07 1011.30 1011.85 1012.16 1012.24 1012.37 1012.37 1012.40 1012.41 1012.02 1011.66 1011.56 1011.31 1011.03 1010.78 1010.37 1010.01 1009.74 1009.49 1009.53 1010.02 1010.43 1011.03 1011.93 1012.74 1013.49
1003.65 1004.03 1004.55 1004.96 1005.23 1005.53 1005.84 1006.27 1006.71 1007.11 1007.59 1008.05 1008.47 1008.98 1009.40 1009.85 1010.36 1010.86 1011.42 1011.73 1012.18 1012.31 1012.24 1012.34 1012.35 1012.22 1011.95 1011.84 1011.45 1011.43 1011.17 1010.84 1010.53 1009.99 1009.73 1009.79 1009.77 1010.12 1010.68 1010.96 1011.45 1012.11 1013.21
1003.33 1003.63 1003.85 1004.22 1004.63 1005.01 1005.51 1006.09 1006.58 1007.03 1007.53 1008.08 1008.70 1009.19 1009.58 1010.02 1010.47 1010.92 1011.74 1011.95 1012.14 1012.27 1012.38 1012.45 1012.55 1012.47 1012.73 1012.37 1011.83 1011.60 1011.36 1011.02 1010.60 1010.12 1010.08 1010.11 1010.27 1010.44 1010.86 1011.31 1011.83 1012.48 1013.15
1003.48 1003.34 1003.62 1004.12 1004.58 1005.00 1005.60 1006.10 1006.71 1007.20 1007.69 1008.32 1008.88 1009.30 1009.71 1010.21 1010.60 1010.96 1011.52 1011.86 1012.05 1012.19 1012.50 1012.76 1012.94 1013.18 1013.20 1012.59 1011.96 1011.65 1011.44 1011.32 1011.03 1010.81 1010.67 1010.70 1010.89 1010.98 1011.19 1011.71 1012.25 1012.82 1013.40
1003.69 1004.04 1004.20 1003.69 1004.50 1005.03 1005.71 1006.21 1006.75 1007.22 1007.76 1008.33 1008.82 1009.18 1009.43 1010.10 1010.60 1010.95 1011.29 1011.67 1011.97 1012.40 1012.78 1013.20 1013.39 1013.57 1013.74 1013.26 1012.48 1012.17 1011.77 1011.65 1011.41 1011.21 1011.17 1011.32 1011.54 1011.71 1011.72 1011.85 1012.50 1013.15 1013.56
1003.28 1003.46 1004.02 1005.02 1004.47 1005.13 1005.68 1006.14 1006.74 1007.31 1007.81 1008.23 1008.62 1009.04 1009.40 1009.86 1010.50 1010.97 1011.34 1011.74 1012.05 1012.42 1012.92 1013.37 1013.67 1013.87 1013.91 1013.68 1013.21 1012.81 1012.58 1012.22 1011.93 1011.56 1011.65 1011.76 1011.92 1012.13 1012.23 1012.51 1012.92 1013.43 1013.84
1003.47 1003.31 1004.00 1004.63 1005.20 1005.35 1005.49 1006.10 1006.59 1007.12 1007.64 1008.25 1008.79 1009.20 1009.64 1010.01 1010.51 1011.08 1011.50 1011.92 1012.29 1012.60 1012.88 1013.24 1013.68 1013.93 1014.15 1014.21 1013.93 1013.53 1013.10 1012.83 1012.32 1012.11 1012.06 1012.25 1012.52 1012.83 1013.05 1013.28 1013.26 1013.51 1013.99
1003.51 1003.78 1003.78 1004.27 1005.15 1005.49 1005.68 1006.09 1006.64 1007.31 1007.75 1008.39 1009.15 1009.85 1010.31 1010.57 1011.03 1011.32 1011.84 1012.10 1012.34 1012.64 1013.00 1013.42 1013.74 1014.03 1014.23 1014.27 1014.23 1014.04 1013.64 1013.35 1012.78 1012.46 1012.29 1012.46 1012.78 1013.16 1013.38 1013.81 1014.05 1014.00 1014.12
1004.02 1004.26 1004.70 1004.87 1004.69 1005.19 1005.56 1006.22 1006.89 1007.45 1007.86 1008.41 1009.24 1010.09 1010.81 1011.28 1011.76 1012.03 1012.35 1012.56 1012.72 1012.90 1013.31 1013.64 1014.03 1014.34 1014.48 1014.52 1014.46 1014.19 1013.91 1013.57 1013.28 1013.06 1012.77 1012.41 1012.77 1013.37 1013.72 1013.99 1014.23 1014.43 1014.65
1003.68 1003.90 1004.85 1005.45 1005.70 1005.06 1005.55 1005.94 1006.89 1007.72 1008.11 1008.38 1009.28 1010.08 1010.90 1011.63 1012.19 1012.71 1013.10 1013.17 1013.29 1013.47 1013.80 1014.11 1014.49 1014.71 1014.75 1014.77 1014.69 1014.40 1013.92 1013.78 1013.52 1013.04 1012.99 1012.80 1012.91 1013.21 1013.54 1014.10 1014.44 1014.83 1014.71
1004.69 1004.31 1004.31 1005.14 1005.75 1006.36 1006.03 1006.57 1007.10 1008.15 1009.19 1009.18 1009.65 1010.73 1011.50 1012.09 1012.87 1013.59 1014.10 1014.14 1014.26 1014.13 1014.32 1014.74 1014.96 1015.21 1015.33 1015.51 1015.28 1014.85 1014.33 1013.99 1013.89 1013.55 1012.97 1013.05 1013.15 1013.50 1013.58 1013.67 1014.10 1014.44 1014.69
1005.37 1004.99 1005.12 1005.60 1006.21 1007.04 1007.21 1007.54 1008.58 1008.21 1009.11 1010.51 1010.67 1011.48 1012.23 1012.96 1013.57 1014.20 1014.85 1015.33 1015.24 1015.05 1015.31 1015.49 1015.51 1015.69 1015.82 1015.63 1015.13 1014.47 1014.11 1013.85 1013.69 1013.50 1013.45 1013.35 1013.27 1013.27 1013.45 1013.50 1013.64 1013.73 1013.74
Wind_Speed
14 9 11 11 9 7 8 9 8 7 4 2 2 1 3 2 3 2 4 5 4 3 3 3 3 4 1 2 3 2 4 2 2 2 3 3 4 4 4 2 3 2 3
7 7 8 9 12 12 12 8 8 7 6 3 2 2 2 2 3 3 2 2 3 4 4 4 4 1 1 3 3 2 3 2 2 1 1 2 2 2 3 4 1 4 2
11 8 9 11 10 10 11 10 9 8 6 6 2 0 1 1 2 2 1 1 3 4 5 4 4 2 1 2 2 2 0 2 1 2 1 1 2 2 2 6 4 1 3
11 10 11 8 11 12 9 8 8 8 7 8 4 4 3 2 1 1 2 4 3 5 4 4 4 4 2 4 4 3 3 2 3 0 1 2 2 2 2 2 2 1 2
14 13 14 15 14 11 11 10 7 6 6 7 6 5 4 2 1 1 3 4 4 3 3 4 4 5 4 5 5 3 5 3 2 3 3 1 1 2 2 2 2 1 1
16 15 15 11 10 8 8 8 8 9 7 7 7 8 7 5 3 3 3 3 2 2 3 4 4 5 6 7 5 4 4 4 4 4 2 1 4 3 2 1 2 3 2
16 14 13 13 12 13 11 8 9 9 7 8 7 8 7 6 7 5 4 3 2 2 4 3 5 3 4 4 4 5 5 5 4 4 0 4 4 3 3 3 4 5 3
15 17 17 16 15 14 13 11 10 11 8 8 9 7 7 4 4 5 4 3 3 3 3 5 5 5 3 4 4 3 4 5 5 4 5 3 4 5 4 4 4 2 3
15 17 16 15 14 12 14 15 11 11 8 10 8 7 7 7 7 7 4 3 3 3 5 5 4 4 3 4 4 4 6 4 4 3 6 6 8 6 7 6 4 4 3
12 12 12 14 13 12 12 11 12 12 11 10 8 8 8 8 6 5 6 5 4 3 4 4 4 5 5 5 5 5 6 4 4 5 9 8 6 7 7 7 5 4 2
12 12 13 14 14 11 12 14 12 11 11 11 9 9 8 8 6 6 5 5 4 5 5 5 5 6 5 5 5 6 6 8 8 5 9 8 7 8 7 6 3 2 3
11 9 9 12 12 14 12 14 13 11 11 8 7 9 7 7 7 7 6 5 6 4 5 4 5 5 6 6 6 7 6 8 8 7 8 9 6 9 6 5 5 3 5
8 7 8 9 12 12 12 12 11 13 9 9 9 7 9 8 9 8 6 5 4 4 5 5 5 5 5 6 6 6 7 7 8 8 7 7 6 7 5 6 5 4 4
8 7 7 8 8 9 12 11 11 10 8 9 9 9 9 9 8 5 5 5 4 4 3 3 5 4 5 6 7 7 7 7 7 8 7 7 6 6 7 6 7 6 6
9 9 9 8 7 8 8 7 7 7 7 8 8 9 6 7 6 6 6 5 3 3 3 3 4 6 6 6 6 7 8 8 8 7 8 7 6 8 10 6 7 8 6
8 8 8 9 10 10 9 7 8 8 8 9 9 7 7 7 8 7 7 5 3 1 2 3 5 7 6 11 9 6 5 7 7 6 5 5 3 5 6 10 14 14 11
11 13 13 11 10 10 9 9 7 5 6 6 6 6 7 8 8 7 6 4 3 3 4 6 5 7 9 14 11 10 5 6 7 6 4 2 3 6 7 8 11 10 9
7 9 9 9 9 8 7 8 8 8 9 8 8 8 9 9 8 7 7 6 4 5 5 6 6 7 8 13 13 10 5 5 6 6 5 3 3 4 7 7 7 7 5
3 3 5 11 8 11 10 10 10 10 10 10 10 10 10 10 9 8 7 6 6 6 7 5 6 6 9 14 15 9 8 7 6 5 5 3 4 5 8 8 7 6 3
4 6 6 3 10 11 11 11 11 10 10 10 10 9 8 9 9 7 6 4 6 7 7 8 7 7 8 15 15 9 5 6 6 5 5 4 4 7 7 6 6 5 3
7 9 7 7 6 9 12 11 10 10 8 9 9 8 7 9 8 7 5 6 7 6 7 8 6 7 7 8 11 12 7 4 4 4 3 2 4 7 7 6 4 4 5
4 7 11 10 8 9 10 11 11 8 10 11 10 7 7 7 6 9 6 7 7 7 5 6 5 5 6 9 11 11 8 9 4 4 3 2 7 7 9 6 6 8 8
3 3 5 7 10 9 9 11 8 11 12 12 11 9 7 7 6 7 7 6 5 5 5 4 5 4 5 5 8 7 9 8 4 4 6 6 9 8 5 5 7 6 5
5 7 7 8 8 9 9 10 10 9 10 12 11 9 9 7 6 5 4 5 4 5 6 6 5 4 5 6 7 7 6 6 5 5 4 1 5 6 5 4 5 2 3
1 4 9 9 7 4 7 9 10 9 7 9 9 8 8 8 8 7 5 5 4 5 6 5 4 4 5 5 7 4 4 3 4 6 0 2 2 3 3 3 5 5 3
3 6 7 9 7 4 7 5 5 8 11 7 7 6 7 7 7 6 6 14 12 15 14 11 6 4 4 5 10 12 7 5 3 1 2 1 1 3 3 4 4 5 9
Wind_Direction
220 208 195 186 176 187 183 190 187 199 160 179 180 226 254 301 302 276 235 217 229 172 197 237 244 244 35 346 10 347 42 345 354 349 354 41 33 69 102 116 118 234 87
193 190 179 175 182 189 195 190 202 184 187 169 187 176 201 251 264 281 255 184 203 190 203 223 241 252 307 332 326 360 23 312 8 25 92 333 334 13 39 103 128 160 221
201 187 177 185 181 187 193 199 205 199 180 180 134 81 323 324 345 347 332 280 203 225 222 229 256 235 234 288 294 301 140 267 272 96 177 323 260 323 48 45 26 355 224
201 192 187 181 190 199 196 205 209 197 191 175 169 182 188 191 250 267 293 303 257 229 229 227 240 262 242 246 238 202 226 202 252 250 187 195 165 173 19 37 343 260 189
192 190 196 198 200 192 192 196 204 215 200 174 188 186 205 203 235 297 322 324 306 223 233 238 246 240 227 243 243 218 215 202 225 205 236 211 67 68 124 274 266 227 260
197 201 203 189 198 189 187 184 192 212 199 186 191 196 206 199 204 250 265 286 311 303 267 255 248 243 231 229 241 270 237 229 219 242 240 69 28 348 267 224 277 237 210
193 196 183 190 190 190 187 180 184 215 199 197 195 200 213 205 210 223 235 253 284 278 287 292 328 298 252 244 252 258 250 231 211 210 102 145 188 209 200 168 240 243 215
193 194 194 194 195 192 193 193 184 211 190 197 212 204 205 205 217 217 225 238 231 254 298 299 293 286 270 228 225 250 260 252 237 205 192 182 185 214 201 189 200 251 221
191 197 193 194 192 186 192 194 189 204 192 206 214 207 203 206 217 222 219 238 252 259 269 263 280 307 268 240 242 243 253 239 255 239 182 181 214 201 219 215 187 193 203
191 194 192 192 192 188 191 191 194 196 202 199 200 208 209 214 219 206 223 229 255 240 267 258 261 285 287 266 262 269 271 275 250 213 221 199 204 209 225 224 212 191 167
191 188 192 195 192 181 178 189 196 197 194 195 200 205 209 207 200 208 214 221 239 242 256 257 270 266 270 276 277 284 291 272 272 254 237 220 194 213 217 218 190 119 138
198 182 182 185 183 188 185 194 201 197 204 193 182 200 202 194 200 205 207 205 232 241 246 258 263 273 273 271 272 285 285 279 285 267 234 228 202 227 206 197 165 141 146
199 171 175 180 184 183 188 194 198 206 191 171 191 190 200 192 207 202 199 202 226 242 253 248 253 265 278 289 285 283 287 283 288 286 274 250 200 217 177 183 145 135 136
190 171 179 188 178 176 186 192 200 198 175 172 186 198 198 196 201 183 165 201 210 228 234 275 293 299 291 284 286 291 302 303 291 288 280 255 204 206 185 181 137 127 136
176 183 181 187 178 176 186 186 190 178 165 177 187 204 181 179 153 149 142 133 143 191 270 313 316 303 302 299 315 305 301 306 303 304 300 270 227 191 176 162 141 134 136
200 178 174 172 173 177 180 167 175 184 169 178 187 158 159 148 146 143 123 140 163 280 357 350 346 329 331 335 318 330 323 325 309 314 323 336 350 162 167 144 148 154 150
193 184 184 179 175 169 163 169 159 133 135 128 120 128 130 128 126 127 125 163 142 108 54 27 3 9 18 357 7 356 330 322 329 334 325 358 48 120 149 141 137 149 161
208 181 178 171 167 152 138 128 133 130 127 125 128 132 130 130 135 137 141 133 115 83 66 46 34 56 24 15 18 351 7 10 10 7 357 17 72 115 132 127 111 135 137
217 285 275 167 147 149 143 137 132 131 133 138 143 146 140 138 139 136 136 129 108 95 83 71 62 59 34 15 26 20 25 13 10 24 24 61 89 87 107 124 111 118 98
192 150 148 187 148 152 148 139 137 139 144 151 145 140 138 134 133 134 128 115 107 111 108 94 80 62 56 28 25 22 30 22 0 5 30 72 123 115 116 115 123 109 99
207 140 140 167 168 150 146 143 145 156 142 129 128 130 129 128 127 118 115 118 113 114 116 102 88 78 53 44 30 23 36 4 351 4 18 33 108 108 84 93 96 110 133
166 179 165 160 158 159 152 151 157 145 135 132 125 117 119 122 118 115 111 112 117 110 109 105 91 70 48 42 21 14 12 9 360 1 0 95 139 122 108 91 109 128 118
152 166 183 171 160 165 165 157 150 149 143 135 130 122 120 114 113 117 119 111 109 105 97 83 74 46 28 23 12 4 351 4 359 0 331 150 135 123 110 108 144 165 132
160 151 147 170 210 171 169 153 149 153 146 134 130 127 124 113 95 82 75 94 102 97 94 90 72 40 23 16 360 350 349 351 344 5 355 205 134 146 128 123 158 303 178
30 137 159 184 184 215 128 135 132 130 128 125 122 117 113 107 91 66 60 85 44 90 109 97 83 47 26 356 303 290 329 345 331 324 105 94 120 175 192 163 165 130 254
107 98 98 102 94 90 85 65 344 137 140 128 111 114 113 107 106 101 83 43 63 71 69 59 67 71 50 331 352 356 1 7 12 115 11 24 180 186 184 194 176 178 206